DW5479 Weather Reports


time (UTC)temp
F
wind
direction
speed
knots
gust
knots
rain 1hr
in
rain 24hr
in
rain mn
in
humidity
%
barometer
mb
20260831071611 78 151 0.9 2.6 0.00 0.00 0.00 85 1013.6
20260831070020 78 160 0.9 4.3 0.00 0.00 0.00 85 1013.7
20260831064532 79 155 1.7 7.0 0.00 0.00 0.00 84 1013.7
20260831063049 79 148 3.5 6.1 0.00 0.00 0.00 84 1013.7
20260831061504 79 160 2.6 6.1 0.00 0.00 0.00 83 1013.8
20260831060015 79 193 1.7 6.1 0.00 0.00 0.00 82 1013.7
20260831054537 80 145 4.3 8.7 0.00 0.00 0.00 82 1013.6
20260831053114 80 177 3.5 8.7 0.00 0.00 0.00 81 1013.6
20260831051510 80 160 3.5 10.4 0.00 0.00 0.00 79 1013.5
20260831050030 81 153 5.2 10.4 0.00 0.00 0.00 78 1013.4
20260831044548 81 158 5.2 13.0 0.00 0.00 0.00 76 1013.4
20260831043103 82 150 7.0 11.3 0.00 0.00 0.00 73 1013.3
20260831041529 83 140 7.0 11.3 0.00 0.00 0.00 70 1013.2
20260831040050 83 130 5.2 9.6 0.00 0.00 0.00 68 1013.1
20260831034532 84 139 7.0 12.2 0.00 0.00 0.00 66 1013.0
20260831033105 84 143 7.0 11.3 0.00 0.00 0.00 63 1012.8
20260831031516 85 153 5.2 8.7 0.00 0.00 0.00 60 1012.8
20260831030047 86 185 4.3 9.6 0.00 0.00 0.00 58 1012.6
20260831024526 86 153 4.3 8.7 0.00 0.00 0.00 57 1012.2
20260831023040 87 141 6.1 11.3 0.00 0.00 0.00 56 1011.8
20260831021605 87 158 5.2 11.3 0.00 0.00 0.00 55 1011.5
20260831020012 88 162 4.3 9.6 0.00 0.00 0.00 55 1011.3
20260831014530 88 141 4.3 8.7 0.00 0.00 0.00 55 1011.2
20260831013055 89 158 4.3 9.6 0.00 0.00 0.00 54 1011.0
20260831011506 90 154 7.0 11.3 0.00 0.00 0.00 54 1010.9
20260831010023 90 141 6.1 11.3 0.00 0.00 0.00 53 1010.7
20260831004524 91 125 6.1 10.4 0.00 0.00 0.00 51 1010.6
20260831003041 93 135 5.2 10.4 0.00 0.00 0.00 48 1010.3
20260831001555 94 152 4.3 10.4 0.00 0.00 0.00 46 1010.3
20260831000012 95 155 7.0 11.3 0.00 0.00 0.00 45 1010.2
20260830234554 94 152 4.3 8.7 0.00 0.00 0.00 45 1010.1
20260830233007 96 129 4.3 11.3 0.00 0.00 0.00 43 1010.1
20260830231523 98 162 4.3 9.6 0.00 0.00 0.00 40 1010.0
20260830230048 98 139 3.5 10.4 0.00 0.00 0.00 39 1010.0
20260830224607 99 142 2.6 9.6 0.00 0.00 0.00 37 1010.0
20260830223050 99 160 4.3 7.8 0.00 0.00 0.00 37 1010.1
20260830221517 99 117 5.2 9.6 0.00 0.00 0.00 36 1010.2
20260830220044 98 143 1.7 9.6 0.00 0.00 0.00 38 1010.2
20260830214606 97 159 2.6 8.7 0.00 0.00 0.00 38 1010.3
20260830213018 98 152 3.5 10.4 0.00 0.00 0.00 38 1010.6
20260830211537 98 153 3.5 8.7 0.00 0.00 0.00 38 1011.0
20260830210058 98 130 4.3 8.7 0.00 0.00 0.00 38 1011.3
20260830204503 98 154 1.7 9.6 0.00 0.00 0.00 38 1011.3
20260830203024 97 133 1.7 7.8 0.00 0.00 0.00 40 1011.6
20260830201539 97 129 2.6 8.7 0.00 0.00 0.00 41 1012.1
20260830200113 96 167 1.7 8.7 0.00 0.00 0.00 43 1012.3
20260830194510 94 158 2.6 9.6 0.00 0.00 0.00 45 1012.6
20260830193031 96 155 2.6 7.8 0.00 0.00 0.00 44 1012.9
20260830191525 95 80 3.5 6.1 0.00 0.00 0.00 44 1013.1
20260830190044 96 141 1.7 8.7 0.00 0.00 0.00 46 1013.3
20260830184601 93 146 2.6 11.3 0.00 0.00 0.00 49 1013.5
20260830183018 94 148 4.3 9.6 0.00 0.00 0.00 47 1013.9
20260830181533 94 138 1.7 7.8 0.00 0.00 0.00 47 1014.1
20260830180053 93 164 7.0 10.4 0.00 0.00 0.00 49 1014.3
20260830174512 93 138 4.3 8.7 0.00 0.00 0.00 50 1014.5
20260830173018 93 143 2.6 8.7 0.00 0.00 0.00 51 1014.7
20260830171532 92 124 4.3 8.7 0.00 0.00 0.00 54 1015.0
20260830170052 91 169 4.3 9.6 0.00 0.00 0.00 53 1015.0
20260830164602 91 146 2.6 7.0 0.00 0.00 0.00 56 1015.1
20260830163023 89 157 3.5 8.7 0.00 0.00 0.00 58 1015.2
20260830161550 88 132 2.6 7.8 0.00 0.00 0.00 64 1015.2
20260830160055 87 181 2.6 7.8 0.00 0.00 0.00 66 1015.3
20260830154506 86 172 2.6 7.8 0.00 0.00 0.00 70 1015.5
20260830153040 86 127 3.5 7.8 0.00 0.00 0.00 71 1015.4
20260830151546 85 143 4.3 7.8 0.00 0.00 0.00 71 1015.4
20260830150112 85 150 2.6 7.0 0.00 0.00 0.00 75 1015.3
20260830144515 84 146 3.5 8.7 0.00 0.00 0.00 77 1015.3
20260830143024 83 171 1.7 4.3 0.00 0.00 0.00 80 1015.3
20260830141538 81 145 1.7 4.3 0.00 0.00 0.00 84 1015.3
20260830140101 80 175 0.0 2.6 0.00 0.00 0.00 84 1015.3
20260830134516 79 155 0.0 2.6 0.00 0.00 0.00 85 1015.2
20260830133031 78 151 0.0 1.7 0.00 0.00 0.00 86 1015.2
20260830131602 76 161 0.0 1.7 0.00 0.00 0.00 86 1014.9
20260830130002 74 177 0.0 0.9 0.00 0.00 0.00 88 1014.8
20260830124528 73 145 0.0 0.0 0.00 0.00 0.00 88 1014.7
20260830123050 72 150 0.0 0.0 0.00 0.00 0.00 88 1014.6
20260830121522 73 155 0.0 0.0 0.00 0.00 0.00 88 1014.5
20260830120030 73 174 0.0 0.0 0.00 0.00 0.00 88 1014.5
20260830114550 73 147 0.0 0.0 0.00 0.00 0.00 88 1014.4
20260830113005 73 153 0.0 0.0 0.00 0.00 0.00 88 1014.5
20260830111525 73 139 0.0 0.0 0.00 0.00 0.00 88 1014.5
20260830110041 73 153 0.0 0.0 0.00 0.00 0.00 88 1014.4
20260830104606 72 174 0.0 0.0 0.00 0.00 0.00 87 1014.2
20260830103013 72 212 0.0 0.0 0.00 0.00 0.00 87 1014.2
20260830101528 72 146 0.0 0.0 0.00 0.00 0.00 87 1014.4
20260830100044 73 148 0.0 0.0 0.00 0.00 0.00 86 1014.2
20260830094509 74 163 0.0 0.0 0.00 0.00 0.00 86 1014.3
20260830093043 74 167 0.0 0.0 0.00 0.00 0.00 86 1014.3
20260830091550 74 165 0.0 0.0 0.00 0.00 0.00 86 1014.2
20260830084515 74 143 0.0 0.0 0.00 0.00 0.00 85 1014.2
20260830083041 74 153 0.0 0.0 0.00 0.00 0.00 85 1014.4
20260830081549 75 176 0.0 0.9 0.00 0.00 0.00 84 1014.3
20260830080002 75 152 0.0 0.9 0.00 0.00 0.00 84 1014.4
20260830074524 76 127 0.0 0.9 0.00 0.00 0.00 83 1014.2
20260830073038 77 138 0.0 1.7 0.00 0.00 0.00 82 1014.5